Regional Weather Roundup
Issued by NWS Boston, MA

Current Version | Previous Version | Text Only | Print | Product List | Glossary Off
Versions: 1 2 3 4 5 6 7 8 9 10 11 12 13 14 15 16 17 18 19 20 21 22 23 24 25 26 27
000 ASUS41 KBOX 200510 RWRBOX REGIONAL WEATHER ROUNDUP NATIONAL WEATHER SERVICE TAUNTON MA 1200 AM EST MON NOV 20 2017 NOTE: "FAIR" INDICATES FEW OR NO CLOUDS BELOW 12,000 FEET WITH NO SIGNIFICANT WEATHER AND/OR OBSTRUCTIONS TO VISIBILITY. MAZALL-200600- EASTERN MASSACHUSETTS CITY SKY/WX TMP DP RH WIND PRES REMARKS BOSTON PTCLDY 38 24 57 W17G24 29.64R WCI 28 BEVERLY CLEAR 35 23 61 W8 29.62R WCI 29 LAWRENCE CLEAR 37 23 56 W10 29.65R WCI 30 BEDFORD CLEAR 35 22 58 W12 29.64R WCI 27 BLUE HILL NOT AVBL NORWOOD CLEAR 38 25 59 W9 29.66R WCI 31 MARSHFIELD CLEAR 36 25 64 VRB6 29.65R WCI 31 PLYMOUTH CLEAR 37 24 59 W9 29.66R WCI 30 TAUNTON CLEAR 38 25 59 W10 29.67R WCI 31 NEW BEDFORD CLEAR 38 25 59 W15G26 29.67R WCI 29 $$ MAZALL-200600- CAPE COD AND THE ISLANDS CITY SKY/WX TMP DP RH WIND PRES REMARKS FALMOUTH CLEAR 37 25 60 W14G21 29.68R WCI 29 HYANNIS CLEAR 38 26 62 W7 29.66R CHATHAM CLEAR 38 26 62 W7 29.66R PROVINCETOWN CLEAR 39 26 59 W18G26 29.65R WCI 30 NANTUCKET CLEAR 41 27 57 W15G25 29.68R MARTHAS VNYRD CLEAR 40 25 55 NW24G33 29.68R WCI 29 $$ MAZALL-200600- CENTRAL AND WESTERN MASSACHUSETTS CITY SKY/WX TMP DP RH WIND PRES REMARKS WORCESTER CLEAR 32 22 66 W14 29.63R WCI 22 FITCHBURG CLEAR 37 25 61 W8G16 29.65R WCI 31 ORANGE CLOUDY 33 24 69 SW7 29.66R WCI 27 SPRINGFIELD CLOUDY 36 22 57 W9 29.69R WCI 29 WESTFIELD MOCLDY 37 23 56 W7 29.70R WCI 32 NORTH ADAMS MOCLDY 33 24 69 W9 29.68R WCI 25 PITTSFIELD LGT SNOW 31 24 75 W16G23 29.67R WCI 20 $$ RIZALL-200600- RHODE ISLAND CITY SKY/WX TMP DP RH WIND PRES REMARKS PROVIDENCE CLEAR 38 26 62 W9 29.70R WCI 31 NEWPORT CLEAR 39 25 57 W7G18 29.69R BLOCK ISLAND PTCLDY 42 28 57 NW13G25 29.72R SMITHFIELD CLEAR 35 25 66 W12G18 29.67R WCI 27 WESTERLY CLEAR 39 26 59 CALM 29.72R $$ CTZALL-200600- CONNECTICUT CITY SKY/WX TMP DP RH WIND PRES REMARKS BRADLEY INTL CLOUDY 36 25 64 W6 29.72R WCI 31 HARTFORD CLOUDY 40 27 59 W7 29.73R BRIDGEPORT CLOUDY 42 27 55 W10G18 29.75R DANBURY CLEAR 38 26 62 W8G20 29.75R GROTON CLEAR 39 25 57 W9 29.72R NEW HAVEN PTCLDY 42 28 57 W9 29.74R CHESTER FAIR 36 25 64 W5 29.71S WCI 32 MERIDEN PTCLDY 30 25 81 CALM 29.73R WILLIMANTIC MOCLDY 38 25 59 SW5 29.71R OXFORD CLEAR 35 26 69 W8 29.72R WCI 29 $$ MEZ002-015-021-024-NHZ003-005-008-011-012-014-VTZ005-008-200600- NORTHERN NEW ENGLAND CITY SKY/WX TMP DP RH WIND PRES REMARKS PORTLAND ME CLEAR 33 21 61 W14 29.56S WCI 23 BANGOR ME CLOUDY 32 22 66 W6 29.49R WCI 26 CONCORD NH PTCLDY 34 21 59 VRB7 29.62R WCI 28 MANCHESTER NH PTCLDY 35 22 58 W6 29.62R WCI 30 NASHUA NH CLEAR 36 22 56 W7 29.65R WCI 30 PORTSMOUTH NH PTCLDY 35 20 53 W8 29.59R WCI 29 JAFFREY NH CLOUDY 33 21 61 W9G16 29.62R WCI 25 KEENE NH CLOUDY 34 21 59 W5 29.65R WCI 30 BURLINGTON VT CLOUDY 31 19 61 NW12 29.67R WCI 22 MT. WASHINGTON SNOWSHWR 7 7 100 NW72G82 N/A VSB 0 WCI -25 $$ NYZ052-076-200600- EASTERN NEW YORK CITY SKY/WX TMP DP RH WIND PRES REMARKS ALBANY FLURRIES 34 26 72 W14 29.73R WCI 25 NEW YORK CITY CLOUDY 42 31 64 W15G23 29.79R $$ ANZALL-200600- MARINE OBSERVATIONS STATION/POSITION TIME TEMP WIND PRES VSBY WAVE AIR SEA DIR/SP/G HT/PER (UTC) (F) (DEG/KT/KT) (MB) (MI) (FT/S) BOSTON BUOY 0450 41 50 270/ 23/ 29 1001.7R 3/ 4 BUZZARDS BAY 0400 42 280/ 30/ 34 1005.0R NANTUCKET SOUND 0450 43 50 290/ 23/ 27 1004.0R 4/ 4 MASS BAY-STELLWA 0404 41 49 290/ 19/ 25 1001.7R 3/ 4 ISLE OF SHOALS 0400 37 290/ 27/ 31 1000.9F S OF BLOCK IS NOT AVBL $$ ......................KEY......................... SKY/WX - SKY CONDITION/PRESENT WEATHER TMP - TEMPERATURE IN FAHRENHEIT DWPT - DEWPOINT IN FAHRENHEIT RH - RELATIVE HUMIDITY IN PERCENT WIND - DIRECTION AND SPEED IN MPH PRES - MEAN SEA LEVEL PRESSURE IN INCHES OF HG WCI - WIND CHILL INDEX VSB - VISIBILITY IN MILES HX - HEAT INDEX TC - TEMPERATURE IN CELSIUS VRB - VARIABLE WIND DIRECTION N/A - NOT AVAILABLE

USA.gov is the U.S. government's official web portal to all federal, state and local government web resources and services.